sat.trackr.live / text

‹ back to catalog

STARLINK-31571

NORAD 59362 · 2024-060Q

PAYLOAD ACTIVE UNKNOWN

§ Identity

Operator
Country
US
Launch date
2024-03-31
Launch site
AFETR
Launch vehicle
Mass (kg)
RCS (m²)

Purposes: comms

External: N2YO · Heavens-Above · Gunter

§ Orbital elements

Epoch: 2026-09-20T10:19:18.899040Z

Period
94.26 min
Inclination
42.9985°
Eccentricity
0.0000851
Mean motion
15.27638829 rev/d
Perigee alt
482.3 km
Apogee alt
483.5 km
Semi-major
6,861.0 km
B*
1.9098e-4
RAAN
240.2510°
Arg perigee
277.8217°
Mean anomaly
82.2538°
Rev number
13,984

§ Raw data

STARLINK-315711 59362U 24060Q   26263.43007985  .00005006  00000+0  19098-3 0  99922 59362  42.9985 240.2510 0000851 277.8217  82.2538 15.27638829139840

JSON: /api/v1/satellites/59362 · /tle

For live sub-satellite position, see the globe view (requires WebGL).

§ Visibility from observer

Set your observer location to see the next 7 days of passes ≥ 10°. The values pass through the URL so the page stays shareable.

No JS? Fill the form by hand. The geolocation button needs JavaScript.